View from above orbital plane
|
View from above satellite
|
Ground track
|
The orbit data is extracted from the following two-line orbital elements,
1 00059U 60013B 21100.59651827 .00000111 00000-0 26656-4 0 9993
2 00059 28.2483 131.8377 0189036 260.2038 97.7113 13.52983439986638
Epoch (UTC): | 10 April 2021 14:18:59 |
Eccentricity: | 0.0189036 |
inclination: | 28.2483° |
perigee height: | 920 km |
apogee height: | 1202 km |
right ascension of ascending node: | 131.8377° |
argument of perigee: | 260.2038° |
revolutions per day: | 13.52983439 |
mean anomaly at epoch: | 97.7113° |
orbit number at epoch: | 98663 |
The dashed part of the orbit path shows where the satellite is in the earth's shadow,
|
|